HAZ891 ZGSZ-YBBN

Flight info

Callsign HAZ891
Flight time N/A
Altitude 39000
Route KEVAR W509 NLG W18 TAMOT B330 BIGEX A583 AKOTA W3 IOO W7 LUMVI B473 OLENG/N0483F410 B473 CS Y177 SMOKA
Aircraft A359/H-SDE2E3GHIJ3J4J5LM1ORWXY/LB1D1

Departure

Time 2026-04-26 08:07
Airport Shenzhen Bao'an International Airport (ZGSZ)

Arrival

Time N/A
Airport Brisbane International Airport (YBBN)
Time Latitude Longitude Altitude Speed Heading
2026-04-26 08:07 22.56135 113.80799 2989 ft 226 kts 168°
2026-04-26 08:07 22.54550 113.81155 3399 ft 239 kts 168°
2026-04-26 08:08 22.52903 113.81525 3989 ft 243 kts 168°
2026-04-26 08:08 22.51201 113.81645 4566 ft 249 kts 188°
2026-04-26 08:08 22.49614 113.80937 5109 ft 250 kts 220°
2026-04-26 08:08 22.48576 113.79472 5836 ft 246 kts 248°
2026-04-26 08:09 22.48256 113.77679 6562 ft 244 kts 266°
2026-04-26 08:09 22.48148 113.75820 7131 ft 251 kts 265°
2026-04-26 08:09 22.48025 113.73931 7780 ft 253 kts 265°
2026-04-26 08:09 22.47886 113.72015 8437 ft 258 kts 265°
2026-04-26 08:10 22.47736 113.70060 9079 ft 263 kts 265°
2026-04-26 08:10 22.47581 113.68086 9822 ft 264 kts 265°
2026-04-26 08:10 22.47423 113.66108 10478 ft 265 kts 264°
2026-04-26 08:10 22.47262 113.64112 11076 ft 269 kts 264°
2026-04-26 08:11 22.47099 113.62095 11730 ft 269 kts 264°
2026-04-26 08:11 22.46867 113.60084 12356 ft 272 kts 256°
2026-04-26 08:11 22.46077 113.58231 12906 ft 278 kts 232°
2026-04-26 08:11 22.44703 113.56736 13205 ft 294 kts 221°
2026-04-26 08:12 22.43091 113.55279 13483 ft 310 kts 220°
2026-04-26 08:12 22.41398 113.53754 13764 ft 325 kts 220°
2026-04-26 08:12 22.39630 113.52143 14027 ft 339 kts 220°
2026-04-26 08:12 22.37657 113.50668 14256 ft 354 kts 207°
2026-04-26 08:13 22.35281 113.49812 14519 ft 366 kts 194°
2026-04-26 08:13 22.32769 113.49209 14868 ft 374 kts 193°
2026-04-26 08:13 22.30207 113.48605 15311 ft 379 kts 194°
2026-04-26 08:13 22.27621 113.47986 15758 ft 383 kts 194°
2026-04-26 08:14 22.25004 113.47360 16193 ft 387 kts 193°
2026-04-26 08:14 22.22317 113.47050 16610 ft 393 kts 179°
2026-04-26 08:14 22.19608 113.47566 17071 ft 399 kts 164°
2026-04-26 08:14 22.16968 113.48512 17512 ft 403 kts 162°
2026-04-26 08:15 22.14305 113.49510 17948 ft 406 kts 162°
2026-04-26 08:15 22.11617 113.50510 18362 ft 410 kts 163°
2026-04-26 08:15 22.08914 113.51508 18748 ft 413 kts 163°
2026-04-26 08:15 22.06183 113.52512 19158 ft 415 kts 163°
2026-04-26 08:16 22.03446 113.53517 19574 ft 417 kts 163°
2026-04-26 08:16 22.00688 113.54539 19994 ft 420 kts 162°
2026-04-26 08:16 21.98007 113.55840 20399 ft 425 kts 152°
2026-04-26 08:16 21.95497 113.57537 20824 ft 429 kts 148°
2026-04-26 08:17 21.93050 113.59390 21249 ft 432 kts 146°
2026-04-26 08:17 21.90623 113.61321 21666 ft 435 kts 145°
2026-04-26 08:17 21.88193 113.63281 22076 ft 437 kts 145°
2026-04-26 08:17 21.85752 113.65243 22481 ft 440 kts 145°
2026-04-26 08:18 21.83281 113.67210 22890 ft 443 kts 146°
2026-04-26 08:18 21.80785 113.69179 23295 ft 446 kts 146°
2026-04-26 08:18 21.78277 113.71145 23676 ft 448 kts 146°
2026-04-26 08:18 21.75740 113.73125 23995 ft 452 kts 146°
2026-04-26 08:19 21.73188 113.75114 24311 ft 455 kts 146°
2026-04-26 08:19 21.70609 113.77122 24637 ft 459 kts 146°
2026-04-26 08:19 21.68018 113.79139 24989 ft 462 kts 146°
2026-04-26 08:19 21.65398 113.81178 25337 ft 466 kts 146°
2026-04-26 08:20 21.62770 113.83224 25693 ft 469 kts 146°
2026-04-26 08:20 21.60113 113.85291 26028 ft 473 kts 146°
2026-04-26 08:20 21.57435 113.87374 26365 ft 477 kts 146°
2026-04-26 08:20 21.54745 113.89466 26717 ft 480 kts 146°
2026-04-26 08:21 21.52027 113.91578 27060 ft 483 kts 146°
2026-04-26 08:21 21.49289 113.93705 27410 ft 487 kts 146°
2026-04-26 08:21 21.46541 113.95838 27760 ft 490 kts 147°
2026-04-26 08:21 21.43768 113.97991 28096 ft 494 kts 147°
2026-04-26 08:22 21.40976 114.00156 28423 ft 497 kts 147°
2026-04-26 08:22 21.38197 114.02310 28749 ft 500 kts 147°
2026-04-26 08:22 21.35363 114.04507 29079 ft 504 kts 147°
2026-04-26 08:22 21.32519 114.06710 29394 ft 507 kts 147°
2026-04-26 08:23 21.29615 114.08958 29720 ft 510 kts 147°
2026-04-26 08:23 21.26765 114.11164 30006 ft 513 kts 147°
2026-04-26 08:23 21.23856 114.13413 30241 ft 517 kts 147°
2026-04-26 08:23 21.20943 114.15665 30547 ft 518 kts 147°
2026-04-26 08:24 21.18014 114.17929 30867 ft 519 kts 147°
2026-04-26 08:24 21.15089 114.20189 31164 ft 520 kts 147°
2026-04-26 08:24 21.12146 114.22461 31458 ft 521 kts 147°
2026-04-26 08:24 21.09195 114.24738 31733 ft 523 kts 147°
2026-04-26 08:25 21.06240 114.27016 32007 ft 524 kts 147°
2026-04-26 08:25 21.03283 114.29295 32256 ft 525 kts 147°
2026-04-26 08:25 21.00309 114.31586 32516 ft 527 kts 147°
2026-04-26 08:25 20.97337 114.33874 32777 ft 528 kts 147°
2026-04-26 08:26 20.94363 114.36164 33137 ft 526 kts 147°
2026-04-26 08:26 20.91392 114.38450 33465 ft 525 kts 148°
2026-04-26 08:26 20.88421 114.40735 33746 ft 525 kts 148°
2026-04-26 08:26 20.85464 114.43007 34073 ft 524 kts 148°
2026-04-26 08:27 20.82510 114.45277 34355 ft 523 kts 148°
2026-04-26 08:27 20.79556 114.47544 34611 ft 522 kts 148°
2026-04-26 08:27 20.76604 114.49809 34866 ft 522 kts 148°
2026-04-26 08:27 20.73664 114.52064 35117 ft 521 kts 148°
2026-04-26 08:28 20.70717 114.54323 35355 ft 520 kts 148°
2026-04-26 08:28 20.67777 114.56575 35593 ft 520 kts 149°
2026-04-26 08:28 20.64849 114.58817 35840 ft 519 kts 149°
2026-04-26 08:28 20.61904 114.61071 36058 ft 519 kts 149°
2026-04-26 08:29 20.58968 114.63318 36262 ft 518 kts 149°
2026-04-26 08:29 20.56037 114.65558 36438 ft 519 kts 149°
2026-04-26 08:29 20.53105 114.67798 36606 ft 519 kts 149°
2026-04-26 08:29 20.50165 114.70044 36826 ft 519 kts 149°
2026-04-26 08:30 20.47270 114.72256 37043 ft 518 kts 149°
2026-04-26 08:30 20.44342 114.74491 37251 ft 517 kts 149°
2026-04-26 08:30 20.41386 114.76747 37454 ft 516 kts 149°
2026-04-26 08:30 20.38500 114.78947 37638 ft 516 kts 149°
2026-04-26 08:31 20.35551 114.81195 37834 ft 515 kts 150°
2026-04-26 08:31 20.32637 114.83414 38006 ft 515 kts 150°
2026-04-26 08:31 20.29761 114.85604 38183 ft 514 kts 150°
2026-04-26 08:31 20.26812 114.87849 38354 ft 513 kts 150°
2026-04-26 08:32 20.23952 114.90024 38505 ft 513 kts 150°
2026-04-26 08:32 20.21049 114.92231 38645 ft 512 kts 150°
2026-04-26 08:32 20.18146 114.94437 38760 ft 512 kts 150°
2026-04-26 08:32 20.15250 114.96636 38851 ft 512 kts 150°
2026-04-26 08:33 20.09425 115.01056 38937 ft 516 kts 150°
2026-04-26 08:33 20.03580 115.05487 38932 ft 517 kts 150°
2026-04-26 08:34 19.97723 115.09927 38933 ft 516 kts 150°
2026-04-26 08:34 19.91885 115.14348 38933 ft 516 kts 150°
2026-04-26 08:35 19.86028 115.18777 38932 ft 516 kts 150°
2026-04-26 08:35 19.80178 115.23196 38928 ft 517 kts 150°
2026-04-26 08:36 19.74322 115.27617 38930 ft 517 kts 150°
2026-04-26 08:36 19.68455 115.32042 38929 ft 517 kts 150°
2026-04-26 08:37 19.62596 115.36457 38931 ft 517 kts 150°
2026-04-26 08:37 19.57731 115.40120 38928 ft 516 kts 150°
2026-04-26 08:38 19.51861 115.44535 38927 ft 517 kts 151°
2026-04-26 08:38 19.45981 115.48952 38925 ft 519 kts 151°
2026-04-26 08:39 19.40097 115.53371 38924 ft 519 kts 151°
2026-04-26 08:39 19.34197 115.57798 38925 ft 519 kts 151°
2026-04-26 08:40 19.28311 115.62210 38924 ft 519 kts 151°
2026-04-26 08:40 19.22409 115.66629 38925 ft 519 kts 151°
2026-04-26 08:41 19.16518 115.71037 38924 ft 520 kts 151°
2026-04-26 08:41 19.10616 115.75448 38926 ft 520 kts 151°
2026-04-26 08:42 19.04699 115.79867 38929 ft 520 kts 151°
2026-04-26 08:42 18.98759 115.84203 38931 ft 515 kts 156°
2026-04-26 08:43 18.92499 115.87818 38923 ft 512 kts 159°
2026-04-26 08:43 18.86180 115.91281 38896 ft 511 kts 159°
2026-04-26 08:44 18.79856 115.94720 38925 ft 511 kts 159°
2026-04-26 08:44 18.73534 115.98168 38921 ft 512 kts 159°
2026-04-26 08:45 18.67210 116.01622 38920 ft 512 kts 159°
2026-04-26 08:45 18.60920 116.05058 38922 ft 512 kts 159°
2026-04-26 08:46 18.54593 116.08511 38920 ft 512 kts 159°
2026-04-26 08:46 18.48254 116.11967 38915 ft 514 kts 159°
2026-04-26 08:47 18.41891 116.15431 38915 ft 516 kts 159°
2026-04-26 08:47 18.35515 116.18903 38915 ft 516 kts 159°
2026-04-26 08:48 18.29141 116.22370 38917 ft 516 kts 159°
2026-04-26 08:48 18.22764 116.25835 38913 ft 516 kts 159°
2026-04-26 08:49 18.16394 116.29294 38904 ft 515 kts 158°
2026-04-26 08:49 18.10042 116.32740 38917 ft 513 kts 158°
2026-04-26 08:50 18.03702 116.36176 38913 ft 513 kts 158°
2026-04-26 08:50 17.97350 116.39616 38912 ft 513 kts 158°
2026-04-26 08:51 17.87840 116.44761 38910 ft 513 kts 158°
2026-04-26 08:52 17.81494 116.48191 38908 ft 512 kts 158°
2026-04-26 08:52 17.75182 116.51607 38914 ft 510 kts 158°
2026-04-26 08:53 17.68871 116.55014 38910 ft 510 kts 158°
2026-04-26 08:53 17.62561 116.58409 38914 ft 510 kts 158°
2026-04-26 08:54 17.56250 116.61806 38902 ft 510 kts 158°
2026-04-26 08:54 17.49948 116.65198 38901 ft 509 kts 158°
2026-04-26 08:55 17.43665 116.68579 38902 ft 507 kts 158°
2026-04-26 08:55 17.37399 116.71947 38903 ft 506 kts 158°
2026-04-26 08:56 17.31131 116.75312 38903 ft 506 kts 158°
2026-04-26 08:56 17.24865 116.78673 38902 ft 506 kts 158°
2026-04-26 08:57 17.18602 116.82032 38884 ft 506 kts 158°
2026-04-26 08:57 17.12330 116.85393 38901 ft 505 kts 158°
2026-04-26 08:58 17.06125 116.88716 38899 ft 504 kts 158°
2026-04-26 08:58 16.99878 116.92057 38897 ft 504 kts 158°
2026-04-26 08:59 16.93643 116.95390 38897 ft 504 kts 158°
2026-04-26 08:59 16.87400 116.98725 38899 ft 504 kts 158°
2026-04-26 09:00 16.81163 117.02054 38897 ft 504 kts 158°
2026-04-26 09:00 16.74920 117.05383 38899 ft 504 kts 158°
2026-04-26 09:01 16.68683 117.08708 38901 ft 504 kts 158°
2026-04-26 09:01 16.62442 117.12032 38897 ft 504 kts 158°
2026-04-26 09:02 16.56204 117.15352 38896 ft 504 kts 158°
2026-04-26 09:02 16.49969 117.18675 38891 ft 504 kts 157°
2026-04-26 09:03 16.44244 117.22993 38903 ft 515 kts 139°
2026-04-26 09:03 16.39261 117.28401 38894 ft 518 kts 136°
2026-04-26 09:04 16.34410 117.33957 38895 ft 519 kts 136°
2026-04-26 09:04 16.29560 117.39510 38895 ft 519 kts 136°
2026-04-26 09:05 16.24680 117.45049 38890 ft 518 kts 136°
2026-04-26 09:05 16.19803 117.50561 38889 ft 518 kts 137°
2026-04-26 09:06 16.14914 117.56080 38879 ft 518 kts 137°
2026-04-26 09:06 16.10038 117.61581 38889 ft 518 kts 136°
2026-04-26 09:07 16.05152 117.67090 38888 ft 517 kts 136°
2026-04-26 09:07 16.00309 117.72546 38884 ft 517 kts 136°
2026-04-26 09:08 15.95426 117.78044 38885 ft 517 kts 136°
2026-04-26 09:08 15.90511 117.83573 38886 ft 518 kts 136°
2026-04-26 09:09 15.85654 117.89033 38886 ft 518 kts 136°
2026-04-26 09:09 15.80770 117.94519 38886 ft 517 kts 137°
2026-04-26 09:10 15.75884 118.00003 38882 ft 517 kts 136°
2026-04-26 09:10 15.70974 118.05511 38887 ft 516 kts 136°
2026-04-26 09:11 15.66131 118.10938 38883 ft 515 kts 136°
2026-04-26 09:11 15.61266 118.16386 38884 ft 515 kts 136°
2026-04-26 09:12 15.56395 118.21836 38881 ft 514 kts 136°
2026-04-26 09:12 15.51529 118.27277 38881 ft 515 kts 137°
2026-04-26 09:13 15.46657 118.32720 38883 ft 515 kts 136°
2026-04-26 09:13 15.41788 118.38157 38884 ft 515 kts 137°
2026-04-26 09:14 15.36922 118.43586 38882 ft 513 kts 136°
2026-04-26 09:14 15.32074 118.48992 38881 ft 512 kts 136°
2026-04-26 09:15 15.27225 118.54393 38881 ft 512 kts 136°
2026-04-26 09:15 15.22379 118.59787 38881 ft 512 kts 136°
2026-04-26 09:16 15.17537 118.65173 38880 ft 512 kts 136°
2026-04-26 09:16 15.12682 118.70570 38877 ft 511 kts 136°
2026-04-26 09:17 15.07835 118.75955 38877 ft 511 kts 136°
2026-04-26 09:17 15.02991 118.81331 38872 ft 511 kts 136°
2026-04-26 09:18 14.98149 118.86702 38877 ft 510 kts 136°
2026-04-26 09:18 14.93318 118.92058 38873 ft 509 kts 136°
2026-04-26 09:19 14.88478 118.97417 38873 ft 509 kts 136°
2026-04-26 09:19 14.83647 119.02765 38870 ft 509 kts 136°
2026-04-26 09:20 14.78811 119.08114 38869 ft 509 kts 136°
2026-04-26 09:20 14.73975 119.13459 38868 ft 509 kts 136°
2026-04-26 09:21 14.69142 119.18798 38868 ft 509 kts 136°
2026-04-26 09:21 14.64303 119.24138 38866 ft 508 kts 136°
2026-04-26 09:22 14.59483 119.29456 38864 ft 506 kts 136°
2026-04-26 09:22 14.54714 119.34714 38865 ft 505 kts 136°
2026-04-26 09:23 14.49876 119.40042 38861 ft 505 kts 136°
2026-04-26 09:23 14.45103 119.45295 38862 ft 505 kts 136°
2026-04-26 09:24 14.40296 119.50584 38860 ft 505 kts 136°
2026-04-26 09:24 14.35494 119.55867 38859 ft 505 kts 136°
2026-04-26 09:25 14.30690 119.61142 38855 ft 504 kts 136°
2026-04-26 09:25 14.26669 119.65553 38859 ft 503 kts 136°
2026-04-26 09:26 14.21884 119.70802 38859 ft 502 kts 136°
2026-04-26 09:26 14.17098 119.76049 38856 ft 502 kts 136°
2026-04-26 09:27 14.12343 119.81258 38853 ft 502 kts 136°
2026-04-26 09:27 14.07555 119.86500 38856 ft 502 kts 136°
2026-04-26 09:28 14.02772 119.91742 38858 ft 502 kts 136°
2026-04-26 09:28 13.97983 119.96977 38851 ft 502 kts 136°
2026-04-26 09:29 13.93195 120.02205 38845 ft 502 kts 136°
2026-04-26 09:29 13.88410 120.07430 38852 ft 501 kts 136°
2026-04-26 09:30 13.83158 120.12047 38861 ft 495 kts 149°
2026-04-26 09:30 13.77360 120.15854 38857 ft 494 kts 151°
2026-04-26 09:31 13.71490 120.19528 38853 ft 494 kts 152°
2026-04-26 09:31 13.65612 120.23197 38853 ft 494 kts 152°
2026-04-26 09:32 13.59737 120.26884 38853 ft 494 kts 151°
2026-04-26 09:32 13.53871 120.30576 38853 ft 494 kts 151°
2026-04-26 09:33 13.48017 120.34260 38853 ft 494 kts 151°
2026-04-26 09:33 13.42156 120.37945 38853 ft 494 kts 151°
2026-04-26 09:34 13.36295 120.41627 38859 ft 494 kts 152°
2026-04-26 09:34 13.30431 120.45312 38861 ft 494 kts 151°
2026-04-26 09:35 13.24573 120.48993 38860 ft 494 kts 152°
2026-04-26 09:35 13.18756 120.52637 38863 ft 494 kts 152°
2026-04-26 09:36 13.12892 120.56310 38863 ft 494 kts 152°
2026-04-26 09:36 13.07033 120.59981 38862 ft 494 kts 152°
2026-04-26 09:37 13.01169 120.63653 38874 ft 494 kts 152°
2026-04-26 09:37 12.95305 120.67323 38877 ft 494 kts 152°
2026-04-26 09:38 12.89443 120.70990 38865 ft 493 kts 152°
2026-04-26 09:38 12.83600 120.74652 38889 ft 491 kts 152°
2026-04-26 09:39 12.77768 120.78291 38871 ft 491 kts 152°
2026-04-26 09:39 12.71929 120.81932 38871 ft 491 kts 152°
2026-04-26 09:40 12.66092 120.85573 38871 ft 491 kts 152°
2026-04-26 09:40 12.60256 120.89213 38866 ft 491 kts 152°
2026-04-26 09:41 12.54420 120.92851 38867 ft 491 kts 151°
2026-04-26 09:41 12.48589 120.96485 38867 ft 491 kts 151°
2026-04-26 09:42 12.42752 121.00119 38873 ft 491 kts 152°
2026-04-26 09:42 12.36962 121.03824 38859 ft 493 kts 147°
2026-04-26 09:43 12.31721 121.08385 38863 ft 496 kts 140°
2026-04-26 09:43 12.26672 121.13191 38864 ft 496 kts 139°
2026-04-26 09:44 12.21652 121.18036 38859 ft 496 kts 139°
2026-04-26 09:44 12.16617 121.22874 38863 ft 496 kts 139°
2026-04-26 09:45 12.11580 121.27693 38860 ft 496 kts 139°
2026-04-26 09:45 12.06538 121.32507 38861 ft 496 kts 139°
2026-04-26 09:46 12.01495 121.37320 38856 ft 496 kts 139°
2026-04-26 09:46 11.96482 121.42101 38864 ft 496 kts 139°
2026-04-26 09:47 11.91444 121.46905 38847 ft 496 kts 139°
2026-04-26 09:47 11.86391 121.51721 38858 ft 496 kts 139°
2026-04-26 09:48 11.81347 121.56526 38855 ft 496 kts 139°
2026-04-26 09:48 11.76305 121.61326 38838 ft 496 kts 139°
2026-04-26 09:49 11.71259 121.66128 38852 ft 496 kts 139°
2026-04-26 09:49 11.66216 121.70924 38846 ft 496 kts 139°
2026-04-26 09:50 11.61176 121.75719 38854 ft 496 kts 139°
2026-04-26 09:50 11.56122 121.80518 38852 ft 496 kts 139°
2026-04-26 09:51 11.51080 121.85303 38850 ft 496 kts 139°
2026-04-26 09:51 11.46036 121.90098 38843 ft 495 kts 139°
2026-04-26 09:52 11.41004 121.94872 38845 ft 494 kts 139°
2026-04-26 09:52 11.33453 122.02024 38866 ft 494 kts 139°
2026-04-26 09:53 11.28420 122.06792 38868 ft 494 kts 139°
2026-04-26 09:53 11.23380 122.11564 38876 ft 495 kts 139°
2026-04-26 09:54 11.18342 122.16335 38869 ft 495 kts 140°
2026-04-26 09:54 11.13305 122.21101 38883 ft 494 kts 139°
2026-04-26 09:55 11.08269 122.25864 38887 ft 493 kts 139°
2026-04-26 09:55 11.03246 122.30620 38884 ft 493 kts 139°
2026-04-26 09:56 10.98213 122.35371 38883 ft 493 kts 139°
2026-04-26 09:56 10.93178 122.40115 38874 ft 493 kts 139°
2026-04-26 09:57 10.88143 122.44860 38870 ft 494 kts 139°
2026-04-26 09:57 10.83109 122.49606 38873 ft 493 kts 139°
2026-04-26 09:58 10.77981 122.54241 38858 ft 492 kts 141°
2026-04-26 09:58 10.72788 122.58754 38855 ft 491 kts 142°
2026-04-26 09:59 10.68483 122.62510 38860 ft 491 kts 141°
2026-04-26 09:59 10.62443 122.67822 38851 ft 491 kts 141°
2026-04-26 10:00 10.57317 122.72344 38852 ft 491 kts 141°
2026-04-26 10:00 10.52157 122.76896 38852 ft 491 kts 141°
2026-04-26 10:01 10.46992 122.81455 38855 ft 491 kts 141°
2026-04-26 10:01 10.41831 122.86001 38857 ft 491 kts 141°
2026-04-26 10:02 10.36667 122.90541 38852 ft 491 kts 141°
2026-04-26 10:02 10.31511 122.95075 38865 ft 490 kts 141°
2026-04-26 10:03 10.26349 122.99615 38860 ft 490 kts 141°
2026-04-26 10:03 10.21195 123.04143 38862 ft 490 kts 141°
2026-04-26 10:04 10.16038 123.08674 38866 ft 490 kts 141°
2026-04-26 10:04 10.10890 123.13207 38867 ft 490 kts 141°
2026-04-26 10:05 10.05757 123.17711 38861 ft 488 kts 141°
2026-04-26 10:05 10.00606 123.22225 38868 ft 489 kts 141°
2026-04-26 10:06 9.95460 123.26736 38854 ft 489 kts 141°
2026-04-26 10:06 9.90309 123.31252 38859 ft 489 kts 141°
2026-04-26 10:07 9.85162 123.35764 38850 ft 489 kts 141°
2026-04-26 10:07 9.80016 123.40272 38847 ft 489 kts 141°
2026-04-26 10:08 9.74894 123.44757 38850 ft 489 kts 141°
2026-04-26 10:08 9.69744 123.49264 38850 ft 489 kts 141°
2026-04-26 10:09 9.65435 123.53035 38850 ft 489 kts 141°
2026-04-26 10:09 9.59444 123.58276 38850 ft 489 kts 141°
2026-04-26 10:10 9.54302 123.62780 38853 ft 489 kts 141°
2026-04-26 10:10 9.49139 123.67287 38848 ft 489 kts 141°
2026-04-26 10:11 9.43985 123.71785 38856 ft 489 kts 141°
2026-04-26 10:11 9.38824 123.76291 38853 ft 490 kts 141°
2026-04-26 10:12 9.34540 123.80038 38856 ft 490 kts 141°
2026-04-26 10:12 9.29371 123.84551 38856 ft 490 kts 141°
2026-04-26 10:13 9.24199 123.89056 38859 ft 490 kts 141°
2026-04-26 10:13 9.19035 123.93555 38864 ft 490 kts 141°
2026-04-26 10:14 9.13868 123.98058 38861 ft 491 kts 141°
2026-04-26 10:14 9.08685 124.02573 38863 ft 491 kts 141°
2026-04-26 10:15 9.03532 124.07061 38866 ft 487 kts 140°
2026-04-26 10:15 8.98407 124.11533 38866 ft 487 kts 140°
2026-04-26 10:16 8.93269 124.16001 38863 ft 487 kts 140°
2026-04-26 10:16 8.88133 124.20466 38862 ft 487 kts 140°
2026-04-26 10:17 8.83000 124.24931 38862 ft 485 kts 141°
2026-04-26 10:17 8.77892 124.29372 38861 ft 485 kts 140°
2026-04-26 10:18 8.72784 124.33812 38864 ft 484 kts 140°
2026-04-26 10:18 8.67690 124.38238 38867 ft 482 kts 140°
2026-04-26 10:19 8.62595 124.42663 38872 ft 482 kts 140°
2026-04-26 10:19 8.57537 124.47055 38870 ft 483 kts 140°
2026-04-26 10:20 8.52440 124.51479 38872 ft 484 kts 139°
2026-04-26 10:20 8.47338 124.55905 38892 ft 484 kts 139°
2026-04-26 10:21 8.42219 124.60346 38888 ft 485 kts 139°
2026-04-26 10:21 8.37047 124.64717 38896 ft 485 kts 141°
2026-04-26 10:22 8.31767 124.68970 38914 ft 485 kts 141°
2026-04-26 10:22 8.26493 124.73223 38914 ft 485 kts 141°
2026-04-26 10:23 8.21227 124.77502 38927 ft 487 kts 141°
2026-04-26 10:23 8.15937 124.81815 38927 ft 489 kts 141°
2026-04-26 10:24 8.10649 124.86126 38928 ft 489 kts 141°
2026-04-26 10:24 8.05368 124.90431 38926 ft 487 kts 142°
2026-04-26 10:25 8.00112 124.94712 38923 ft 486 kts 142°
2026-04-26 10:25 7.94854 124.98998 38914 ft 486 kts 141°
2026-04-26 10:26 7.89588 125.03289 38914 ft 487 kts 142°
2026-04-26 10:26 7.84314 125.07577 38909 ft 486 kts 142°
2026-04-26 10:27 7.79061 125.11850 38895 ft 485 kts 142°
2026-04-26 10:27 7.73806 125.16125 38887 ft 486 kts 141°
2026-04-26 10:28 7.68527 125.20419 38878 ft 489 kts 141°
2026-04-26 10:28 7.63254 125.24706 38877 ft 489 kts 141°
2026-04-26 10:29 7.57959 125.29010 38876 ft 488 kts 141°
2026-04-26 10:29 7.52677 125.33302 38874 ft 488 kts 141°
2026-04-26 10:30 7.47395 125.37593 38866 ft 488 kts 141°
2026-04-26 10:30 7.42104 125.41891 38859 ft 489 kts 142°
2026-04-26 10:31 7.36789 125.46211 38857 ft 493 kts 142°
2026-04-26 10:31 7.31416 125.50570 38856 ft 496 kts 142°
2026-04-26 10:32 7.26048 125.54917 38851 ft 494 kts 142°
2026-04-26 10:32 7.20690 125.59258 38841 ft 494 kts 141°
2026-04-26 10:33 7.15343 125.63591 38888 ft 494 kts 141°
2026-04-26 10:33 7.09984 125.67913 38887 ft 494 kts 142°
2026-04-26 10:34 7.04553 125.72143 38888 ft 494 kts 143°
2026-04-26 10:34 6.99102 125.76362 38837 ft 494 kts 143°
2026-04-26 10:35 6.93666 125.80592 38837 ft 494 kts 143°
2026-04-26 10:35 6.88237 125.84830 38837 ft 494 kts 143°
2026-04-26 10:36 6.82812 125.89074 38845 ft 494 kts 143°
2026-04-26 10:36 6.77379 125.93311 38845 ft 494 kts 143°
2026-04-26 10:37 6.71945 125.97544 38853 ft 493 kts 143°
2026-04-26 10:37 6.66528 126.01774 38854 ft 493 kts 143°
2026-04-26 10:38 6.61100 126.06002 38868 ft 493 kts 143°
2026-04-26 10:38 6.55716 126.10194 38868 ft 493 kts 143°
2026-04-26 10:39 6.50298 126.14415 38870 ft 493 kts 143°
2026-04-26 10:39 6.44843 126.18664 38870 ft 493 kts 143°
2026-04-26 10:40 6.39423 126.22885 38872 ft 493 kts 143°
2026-04-26 10:40 6.34004 126.27104 38882 ft 493 kts 143°
2026-04-26 10:41 6.28583 126.31323 38882 ft 493 kts 143°
2026-04-26 10:41 6.23189 126.35520 38881 ft 493 kts 143°
2026-04-26 10:42 6.17735 126.39762 38883 ft 493 kts 143°
2026-04-26 10:42 6.12314 126.43978 38881 ft 493 kts 143°
2026-04-26 10:43 6.06895 126.48192 38879 ft 492 kts 142°
2026-04-26 10:43 6.01514 126.52375 38878 ft 492 kts 142°
2026-04-26 10:44 5.96098 126.56583 38881 ft 492 kts 142°
2026-04-26 10:44 5.90686 126.60787 38881 ft 492 kts 142°
2026-04-26 10:45 5.85266 126.64998 38880 ft 492 kts 142°
2026-04-26 10:45 5.79854 126.69200 38881 ft 492 kts 142°
2026-04-26 10:46 5.74442 126.73401 38880 ft 491 kts 142°
2026-04-26 10:46 5.69040 126.77594 38882 ft 491 kts 142°
2026-04-26 10:47 5.63635 126.81788 38881 ft 490 kts 142°
2026-04-26 10:47 5.58238 126.85975 38878 ft 490 kts 142°
2026-04-26 10:48 5.52844 126.90158 38879 ft 490 kts 142°
2026-04-26 10:48 5.47445 126.94344 38882 ft 490 kts 142°
2026-04-26 10:49 5.42048 126.98527 38878 ft 490 kts 142°
2026-04-26 10:49 5.36651 127.02711 38879 ft 491 kts 142°
2026-04-26 10:50 5.32155 127.06194 38880 ft 491 kts 142°
2026-04-26 10:50 5.25843 127.11084 38881 ft 491 kts 142°
2026-04-26 10:51 5.17740 127.17359 38881 ft 490 kts 142°
2026-04-26 10:52 5.12344 127.21537 38881 ft 490 kts 142°
2026-04-26 10:52 5.06947 127.25715 38881 ft 490 kts 142°
2026-04-26 10:53 5.01547 127.29894 38881 ft 490 kts 142°
2026-04-26 10:53 4.96149 127.34071 38881 ft 490 kts 142°
2026-04-26 10:54 4.88085 127.40308 38881 ft 490 kts 142°
2026-04-26 10:54 4.82694 127.44477 38882 ft 489 kts 141°
2026-04-26 10:55 4.77311 127.48639 38884 ft 489 kts 142°
2026-04-26 10:55 4.72800 127.52126 38884 ft 488 kts 142°
2026-04-26 10:56 4.66557 127.56952 38882 ft 488 kts 142°
2026-04-26 10:56 4.61171 127.61113 38881 ft 488 kts 142°
2026-04-26 10:57 4.55796 127.65266 38879 ft 488 kts 142°
2026-04-26 10:57 4.50425 127.69415 38879 ft 487 kts 141°
2026-04-26 10:58 4.45067 127.73552 38881 ft 485 kts 142°
2026-04-26 10:58 4.39728 127.77674 38881 ft 484 kts 142°
2026-04-26 10:59 4.34386 127.81798 38881 ft 485 kts 142°
2026-04-26 10:59 4.29944 127.85227 38879 ft 485 kts 142°
2026-04-26 11:00 4.23738 127.90016 38881 ft 485 kts 142°
2026-04-26 11:00 4.19257 127.93473 38880 ft 485 kts 142°
2026-04-26 11:01 4.13918 127.97592 38879 ft 484 kts 142°
2026-04-26 11:01 4.08587 128.01703 38877 ft 483 kts 142°
2026-04-26 11:02 4.03259 128.05813 38879 ft 483 kts 142°
2026-04-26 11:02 3.97933 128.09917 38876 ft 483 kts 142°
2026-04-26 11:03 3.92570 128.13985 38876 ft 484 kts 142°
2026-04-26 11:03 3.87198 128.18037 38875 ft 484 kts 142°
2026-04-26 11:04 3.81864 128.22071 38878 ft 483 kts 142°
2026-04-26 11:04 3.76503 128.26131 38879 ft 483 kts 142°
2026-04-26 11:05 3.71147 128.30189 38878 ft 483 kts 142°
2026-04-26 11:05 3.65788 128.34249 38878 ft 483 kts 142°
2026-04-26 11:06 3.60432 128.38305 38878 ft 483 kts 142°
2026-04-26 11:06 3.55078 128.42359 38875 ft 482 kts 142°
2026-04-26 11:07 3.49742 128.46398 38876 ft 481 kts 142°
2026-04-26 11:07 3.44407 128.50437 38876 ft 480 kts 142°
2026-04-26 11:08 3.39077 128.54471 38874 ft 480 kts 142°
2026-04-26 11:08 3.33746 128.58505 38873 ft 480 kts 142°
2026-04-26 11:09 3.28417 128.62537 38875 ft 480 kts 142°
2026-04-26 11:09 3.23086 128.66570 38865 ft 480 kts 141°
2026-04-26 11:10 3.17758 128.70601 38873 ft 479 kts 141°
2026-04-26 11:10 3.12457 128.74610 38876 ft 478 kts 141°
2026-04-26 11:11 3.07155 128.78620 38873 ft 478 kts 141°
2026-04-26 11:11 3.01845 128.82635 38871 ft 478 kts 141°
2026-04-26 11:12 2.96542 128.86644 38872 ft 478 kts 141°
2026-04-26 11:12 2.91237 128.90654 38871 ft 477 kts 141°
2026-04-26 11:13 2.85948 128.94652 38877 ft 476 kts 141°
2026-04-26 11:13 2.80695 128.98622 38874 ft 476 kts 141°
2026-04-26 11:14 2.75409 129.02617 38875 ft 476 kts 141°
2026-04-26 11:14 2.70117 129.06615 38875 ft 476 kts 141°
2026-04-26 11:15 2.64832 129.10608 38876 ft 476 kts 141°
2026-04-26 11:15 2.59551 129.14598 38874 ft 476 kts 141°
2026-04-26 11:16 2.54278 129.18581 38876 ft 475 kts 141°
2026-04-26 11:16 2.48997 129.22570 38875 ft 475 kts 141°
2026-04-26 11:17 2.43728 129.26549 38875 ft 475 kts 141°
2026-04-26 11:17 2.38455 129.30530 38876 ft 475 kts 141°
2026-04-26 11:18 2.33178 129.34515 38878 ft 475 kts 141°
2026-04-26 11:18 2.27910 129.38492 38880 ft 474 kts 141°
2026-04-26 11:19 2.22645 129.42467 38878 ft 474 kts 141°
2026-04-26 11:19 2.17384 129.46438 38878 ft 474 kts 141°
2026-04-26 11:20 2.13008 129.49742 38875 ft 474 kts 141°
2026-04-26 11:20 2.06857 129.54384 38875 ft 474 kts 141°
2026-04-26 11:21 2.01600 129.58350 38875 ft 473 kts 141°
2026-04-26 11:21 1.96355 129.62309 38875 ft 472 kts 141°
2026-04-26 11:22 1.91168 129.66345 38879 ft 472 kts 139°
2026-04-26 11:22 1.86079 129.70477 38878 ft 472 kts 139°
2026-04-26 11:23 1.80972 129.74614 38877 ft 472 kts 139°
2026-04-26 11:23 1.75893 129.78697 38881 ft 472 kts 140°
2026-04-26 11:24 1.70774 129.82799 38877 ft 472 kts 140°
2026-04-26 11:24 1.65610 129.86935 38878 ft 473 kts 140°
2026-04-26 11:25 1.60506 129.91025 38880 ft 473 kts 140°
2026-04-26 11:25 1.55375 129.95136 38878 ft 473 kts 140°
2026-04-26 11:26 1.50245 129.99246 38881 ft 473 kts 140°
2026-04-26 11:26 1.45115 130.03357 38884 ft 473 kts 140°
2026-04-26 11:27 1.39977 130.07473 38879 ft 473 kts 140°
2026-04-26 11:27 1.34838 130.11590 38878 ft 474 kts 140°
2026-04-26 11:28 1.29690 130.15714 38880 ft 474 kts 140°
2026-04-26 11:28 1.24549 130.19832 38881 ft 474 kts 140°
2026-04-26 11:29 1.19410 130.23948 38881 ft 474 kts 140°
2026-04-26 11:29 1.14270 130.28065 38883 ft 474 kts 140°
2026-04-26 11:30 1.09994 130.31490 38881 ft 474 kts 140°
2026-04-26 11:30 1.03985 130.36302 38881 ft 474 kts 140°
2026-04-26 11:31 0.98870 130.40398 38879 ft 474 kts 140°
2026-04-26 11:31 0.93728 130.44516 38879 ft 474 kts 140°
2026-04-26 11:32 0.88585 130.48634 38878 ft 474 kts 140°
2026-04-26 11:32 0.83443 130.52752 38878 ft 474 kts 140°
2026-04-26 11:33 0.78294 130.56874 38880 ft 475 kts 140°
2026-04-26 11:33 0.73135 130.61005 38881 ft 475 kts 140°
2026-04-26 11:34 0.67984 130.65129 38879 ft 475 kts 140°
2026-04-26 11:34 0.62833 130.69253 38880 ft 475 kts 140°
2026-04-26 11:35 0.57680 130.73378 38881 ft 475 kts 140°
2026-04-26 11:35 0.53390 130.76813 38881 ft 475 kts 140°
2026-04-26 11:36 0.47351 130.81648 38881 ft 476 kts 140°
2026-04-26 11:36 0.42185 130.85784 38881 ft 476 kts 140°
2026-04-26 11:37 0.37020 130.89918 38885 ft 476 kts 140°
2026-04-26 11:37 0.31853 130.94054 38883 ft 476 kts 140°
2026-04-26 11:38 0.26691 130.98187 38884 ft 476 kts 140°
2026-04-26 11:38 0.21524 131.02323 38887 ft 475 kts 140°
2026-04-26 11:39 0.16398 131.06426 38887 ft 475 kts 140°
2026-04-26 11:39 0.11236 131.10559 38886 ft 476 kts 140°
2026-04-26 11:40 0.06040 131.14718 38886 ft 476 kts 140°
2026-04-26 11:40 0.00885 131.18845 38889 ft 475 kts 140°
2026-04-26 11:42 -0.19761 131.35372 38886 ft 476 kts 140°
2026-04-26 11:43 -0.24930 131.39509 38889 ft 476 kts 140°
2026-04-26 11:43 -0.30095 131.43644 38887 ft 476 kts 140°
2026-04-26 11:44 -0.35268 131.47785 38890 ft 477 kts 140°
2026-04-26 11:44 -0.40445 131.51929 38889 ft 477 kts 140°
2026-04-26 11:45 -0.45625 131.56077 38889 ft 477 kts 140°
2026-04-26 11:45 -0.50803 131.60221 38889 ft 477 kts 140°
2026-04-26 11:46 -0.55982 131.64368 38890 ft 477 kts 140°
2026-04-26 11:46 -0.61163 131.68516 38894 ft 478 kts 140°
2026-04-26 11:47 -0.65479 131.71972 38896 ft 479 kts 140°
2026-04-26 11:47 -0.71556 131.76837 38898 ft 479 kts 140°
2026-04-26 11:48 -0.75880 131.80299 38906 ft 479 kts 140°
2026-04-26 11:48 -0.81065 131.84451 38904 ft 479 kts 140°
2026-04-26 11:49 -0.86274 131.88621 38908 ft 479 kts 140°
2026-04-26 11:49 -0.91490 131.92798 38910 ft 481 kts 140°
2026-04-26 11:50 -0.96712 131.96981 38915 ft 482 kts 140°
2026-04-26 11:50 -1.01940 132.01167 38916 ft 482 kts 140°
2026-04-26 11:51 -1.07172 132.05356 38918 ft 482 kts 140°
2026-04-26 11:51 -1.12399 132.09543 38918 ft 482 kts 140°
2026-04-26 11:52 -1.17626 132.13729 38915 ft 482 kts 139°
2026-04-26 11:52 -1.22854 132.17917 38912 ft 482 kts 139°
2026-04-26 11:53 -1.28089 132.22110 38909 ft 482 kts 139°
2026-04-26 11:54 -1.35921 132.28383 38909 ft 481 kts 139°
2026-04-26 11:54 -1.41137 132.32562 38904 ft 481 kts 139°
2026-04-26 11:55 -1.46359 132.36746 38912 ft 482 kts 139°
2026-04-26 11:55 -1.51598 132.40944 38899 ft 483 kts 139°
2026-04-26 11:56 -1.56840 132.45143 38900 ft 483 kts 139°
2026-04-26 11:56 -1.62085 132.49347 38895 ft 483 kts 139°
2026-04-26 11:57 -1.67287 132.53515 38895 ft 483 kts 139°
2026-04-26 11:57 -1.72554 132.57736 38890 ft 483 kts 139°
2026-04-26 11:58 -1.77796 132.61938 38885 ft 482 kts 139°
2026-04-26 11:58 -1.82995 132.66105 38882 ft 482 kts 139°
2026-04-26 11:59 -1.88224 132.70297 38881 ft 482 kts 139°
2026-04-26 11:59 -1.93448 132.74484 38878 ft 482 kts 139°
2026-04-26 12:00 -1.97832 132.77999 38882 ft 482 kts 139°
2026-04-26 12:00 -2.03907 132.82870 38880 ft 481 kts 139°
2026-04-26 12:01 -2.09127 132.87056 38881 ft 481 kts 139°
2026-04-26 12:01 -2.14346 132.91241 38875 ft 481 kts 139°
2026-04-26 12:02 -2.19565 132.95427 38876 ft 481 kts 139°
2026-04-26 12:02 -2.24793 132.99620 38879 ft 481 kts 139°
2026-04-26 12:03 -2.30007 133.03802 38874 ft 480 kts 139°
2026-04-26 12:03 -2.35219 133.07984 38875 ft 480 kts 139°
2026-04-26 12:04 -2.40429 133.12164 38876 ft 480 kts 139°
2026-04-26 12:04 -2.45647 133.16351 38878 ft 480 kts 139°
2026-04-26 12:05 -2.50858 133.20533 38881 ft 480 kts 139°
2026-04-26 12:05 -2.56069 133.24715 38884 ft 480 kts 139°
2026-04-26 12:06 -2.61283 133.28899 38886 ft 481 kts 139°
2026-04-26 12:06 -2.66498 133.33086 38883 ft 481 kts 139°
2026-04-26 12:07 -2.71687 133.37252 38881 ft 481 kts 139°
2026-04-26 12:07 -2.76938 133.41468 38886 ft 481 kts 139°
2026-04-26 12:08 -2.82152 133.45656 38886 ft 481 kts 139°
2026-04-26 12:08 -2.87347 133.49828 38887 ft 482 kts 139°
2026-04-26 12:09 -2.92570 133.54023 38887 ft 482 kts 139°
2026-04-26 12:09 -2.97795 133.58220 38887 ft 482 kts 139°
2026-04-26 12:10 -3.03051 133.62400 39044 ft 483 kts 141°
2026-04-26 12:10 -3.05732 133.64425 39234 ft 482 kts 141°
2026-04-26 12:10 -3.08417 133.66419 39387 ft 481 kts 142°
2026-04-26 12:10 -3.11110 133.68415 39555 ft 481 kts 142°
2026-04-26 12:11 -3.13792 133.70410 39693 ft 481 kts 141°
2026-04-26 12:11 -3.16474 133.72417 39850 ft 481 kts 141°